Location: Brede
(50.9167°N, 0.6000°E)
Time: 20:58:03
(UTC+00:00)

X-37B - Pass Details

Date: 05 November 2020
Orbit: 384 x 390 km, 45.0° (Epoch: 26 November)

Event Time Altitude Azimuth Distance (km) Brightness Sun altitude
Exits shadow 05:18:03 12° 207° (SSW) 1,292 3.0 -15.8°
Maximum altitude 05:20:02 20° 163° (SSE) 975 2.8 -15.5°
Drops below altitude 10° 05:22:26 10° 114° (ESE) 1,414 4.6 -15.1°
Sets 05:24:50 0° 97° (E) 2,269 6.4 -14.8°
